{"data":{"norad_id":68531,"epoch":"2026-09-20T03:38:27.405312Z","epoch_age_seconds":78458,"freshness":"FRESH","line1":"1 68531U 26068Z   26263.15170608  .00011925  00000+0  36358-3 0  9997","line2":"2 68531  53.1592 303.4786 0001268  92.3159 267.7988 15.34392189 26759","mean_motion":15.34392189,"eccentricity":0.0001268,"inclination_deg":53.1592,"raan_deg":303.4786,"arg_perigee_deg":92.3159,"mean_anomaly_deg":267.7988,"bstar":0.00036358,"rev_number":2675,"period_min":93.848235824146,"perigee_km":461.85903475743,"apogee_km":463.59387772994,"semimajor_km":6840.8634562437,"source":"CELESTRAK","updated_at":"2026-09-20T09:00:43.907940Z"}}